| time (UTC) | temp C | wind direction | speed KPH | gust KPH | rain 1hr cm | rain 24hr cm | rain mn cm | humidity % | barometer mb |
| 20260504190327 | 12 | 88 | 9.7 | 0.0 | 0.00 | 0.00 | 0.00 | 44 | 1012.3 |
| 20260504184823 | 11 | 16 | 14.5 | 0.0 | 0.00 | 0.00 | 0.00 | 44 | 1013.0 |
| 20260504183345 | 15 | 42 | 8.0 | 0.0 | 0.00 | 0.00 | 0.00 | 29 | 1011.9 |
| 20260504181846 | 15 | 69 | 9.7 | 0.0 | 0.00 | 0.00 | 0.00 | 25 | 1011.6 |
| 20260504180327 | 16 | 38 | 8.0 | 0.0 | 0.00 | 0.00 | 0.00 | 23 | 1011.5 |
| 20260504174824 | 17 | 44 | 9.7 | 0.0 | 0.00 | 0.00 | 0.00 | 23 | 1011.6 |
| 20260504173319 | 16 | 341 | 8.0 | 0.0 | 0.00 | 0.00 | 0.00 | 22 | 1011.7 |
| 20260504171827 | 17 | 355 | 12.9 | 0.0 | 0.00 | 0.00 | 0.00 | 20 | 1011.8 |
| 20260504170326 | 16 | 24 | 11.3 | 0.0 | 0.00 | 0.00 | 0.00 | 21 | 1011.7 |
| 20260504160317 | 17 | 299 | 14.5 | 0.0 | 0.00 | 0.00 | 0.00 | 22 | 1011.7 |
| 20260504150321 | 15 | 279 | 6.4 | 0.0 | 0.00 | 0.00 | 0.00 | 25 | 1012.1 |
| 20260504140325 | 12 | 290 | 1.6 | 0.0 | 0.00 | 0.00 | 0.00 | 27 | 1011.8 |
| 20260504130359 | 8 | 59 | 3.2 | 0.0 | 0.00 | 0.00 | 0.00 | 34 | 1011.7 |
| 20260504110321 | 6 | 48 | 1.6 | 0.0 | 0.00 | 0.00 | 0.00 | 45 | 1012.4 |
| 20260504100321 | 6 | 48 | 3.2 | 0.0 | 0.00 | 0.00 | 0.00 | 42 | 1012.5 |
| 20260504081811 | 6 | 41 | 0.0 | 0.0 | 0.00 | 0.00 | 0.00 | 40 | 1013.4 |
| 20260504080325 | 7 | 40 | 0.0 | 0.0 | 0.00 | 0.00 | 0.00 | 38 | 1013.7 |
| 20260504070332 | 7 | 43 | 1.6 | 0.0 | 0.00 | 0.00 | 0.00 | 39 | 1014.4 |
| 20260504050330 | 9 | 284 | 0.0 | 0.0 | 0.00 | 0.00 | 0.00 | 33 | 1014.8 |
| 20260504044830 | 10 | 284 | 0.0 | 0.0 | 0.00 | 0.00 | 0.00 | 31 | 1015.1 |
| 20260504043352 | 10 | 90 | 0.0 | 0.0 | 0.00 | 0.00 | 0.00 | 31 | 1014.9 |
| 20260504041815 | 11 | 123 | 0.0 | 0.0 | 0.00 | 0.00 | 0.00 | 29 | 1014.8 |
| 20260504040328 | 11 | 123 | 0.0 | 0.0 | 0.00 | 0.00 | 0.00 | 26 | 1014.9 |
| 20260504034838 | 12 | 59 | 0.0 | 0.0 | 0.00 | 0.00 | 0.00 | 24 | 1014.7 |
| 20260504033313 | 13 | 59 | 0.0 | 0.0 | 0.00 | 0.00 | 0.00 | 23 | 1014.6 |
| 20260504031835 | 13 | 59 | 0.0 | 0.0 | 0.00 | 0.00 | 0.00 | 23 | 1014.6 |
| 20260504030318 | 13 | 59 | 0.0 | 0.0 | 0.00 | 0.00 | 0.00 | 22 | 1014.5 |
| 20260504024819 | 13 | 59 | 0.0 | 0.0 | 0.00 | 0.00 | 0.00 | 22 | 1014.4 |
| 20260504023334 | 14 | 59 | 0.0 | 0.0 | 0.00 | 0.00 | 0.00 | 21 | 1014.3 |
| 20260504021822 | 15 | 59 | 1.6 | 0.0 | 0.00 | 0.00 | 0.00 | 20 | 1014.2 |
| 20260504020335 | 15 | 65 | 3.2 | 0.0 | 0.00 | 0.00 | 0.00 | 19 | 1014.0 |
| 20260504014829 | 16 | 54 | 3.2 | 0.0 | 0.00 | 0.00 | 0.00 | 19 | 1014.0 |
| 20260504013319 | 16 | 55 | 4.8 | 0.0 | 0.00 | 0.00 | 0.00 | 17 | 1013.9 |
| 20260504011815 | 16 | 32 | 4.8 | 0.0 | 0.00 | 0.00 | 0.00 | 17 | 1013.9 |
| 20260504010335 | 17 | 51 | 3.2 | 0.0 | 0.00 | 0.00 | 0.00 | 16 | 1013.8 |
| 20260504004845 | 17 | 54 | 6.4 | 0.0 | 0.00 | 0.00 | 0.00 | 16 | 1013.8 |
| 20260504003323 | 17 | 5 | 8.0 | 0.0 | 0.00 | 0.00 | 0.00 | 15 | 1013.9 |
| 20260504001830 | 17 | 350 | 8.0 | 0.0 | 0.00 | 0.00 | 0.00 | 17 | 1013.9 |
| 20260504000327 | 17 | 271 | 9.7 | 0.0 | 0.00 | 0.00 | 0.00 | 19 | 1013.9 |
| 20260503234832 | 17 | 276 | 8.0 | 0.0 | 0.00 | 0.00 | 0.00 | 19 | 1014.0 |
| 20260503233327 | 17 | 307 | 6.4 | 0.0 | 0.00 | 0.00 | 0.00 | 18 | 1014.1 |
| 20260503231820 | 17 | 45 | 4.8 | 0.0 | 0.00 | 0.00 | 0.00 | 19 | 1013.9 |
| 20260503230315 | 17 | 277 | 6.4 | 0.0 | 0.00 | 0.00 | 0.00 | 20 | 1014.1 |
| 20260503224830 | 17 | 302 | 9.7 | 0.0 | 0.00 | 0.00 | 0.00 | 21 | 1014.1 |
| 20260503223334 | 18 | 333 | 9.7 | 0.0 | 0.00 | 0.00 | 0.00 | 18 | 1014.2 |
| 20260503221821 | 18 | 46 | 9.7 | 0.0 | 0.00 | 0.00 | 0.00 | 17 | 1014.5 |
| 20260503220314 | 18 | 256 | 6.4 | 0.0 | 0.00 | 0.00 | 0.00 | 18 | 1014.2 |
| 20260503214827 | 18 | 281 | 6.4 | 0.0 | 0.00 | 0.00 | 0.00 | 19 | 1014.5 |
| 20260503213319 | 17 | 260 | 6.4 | 0.0 | 0.00 | 0.00 | 0.00 | 20 | 1014.9 |
| 20260503211816 | 18 | 259 | 8.0 | 0.0 | 0.00 | 0.00 | 0.00 | 20 | 1015.2 |
| 20260503210335 | 17 | 340 | 8.0 | 0.0 | 0.00 | 0.00 | 0.00 | 20 | 1015.4 |
| 20260503204835 | 17 | 47 | 9.7 | 0.0 | 0.00 | 0.00 | 0.00 | 20 | 1015.6 |
| 20260503203320 | 18 | 355 | 8.0 | 0.0 | 0.00 | 0.00 | 0.00 | 17 | 1015.7 |
| 20260503201830 | 18 | 229 | 4.8 | 0.0 | 0.00 | 0.00 | 0.00 | 17 | 1015.9 |
| 20260503200334 | 18 | 245 | 1.6 | 0.0 | 0.00 | 0.00 | 0.00 | 17 | 1016.2 |
| 20260503194837 | 18 | 50 | 3.2 | 0.0 | 0.00 | 0.00 | 0.00 | 19 | 1016.4 |
| 20260503193329 | 17 | 42 | 4.8 | 0.0 | 0.00 | 0.00 | 0.00 | 18 | 1016.3 |
| 20260503191818 | 17 | 9 | 6.4 | 0.0 | 0.00 | 0.00 | 0.00 | 18 | 1016.7 |